CDT,Max TemperatureF,Mean TemperatureF,Min TemperatureF,Max Dew PointF,MeanDew PointF,Min DewpointF,Max Humidity, Mean Humidity, Min Humidity, Max Sea Level PressureIn, Mean Sea Level PressureIn, Min Sea Level PressureIn, Max VisibilityMiles, Mean VisibilityMiles, Min VisibilityMiles, Max Wind SpeedMPH, Mean Wind SpeedMPH, Max Gust SpeedMPH,PrecipitationIn, CloudCover, Events, WindDirDegrees
2012-10-1,64,56,47,55,47,39,84,68,52,30.03,29.98,29.90,10,10,9,25,9,33,0.05,4,Rain,325
2012-10-2,73,56,38,41,34,27,85,52,19,30.04,29.96,29.88,10,10,10,14,7,17,0.00,0,,252
2012-10-3,82,64,46,49,41,34,66,45,24,29.93,29.84,29.74,10,10,7,28,14,35,0.00,0,,175
2012-10-4,61,53,44,49,37,30,82,58,33,30.31,30.20,29.96,10,10,10,26,12,35,0.02,3,Rain-Thunderstorm,352
2012-10-5,52,45,38,36,31,26,73,57,41,30.38,30.32,30.29,10,10,9,16,8,22,0.02,5,Rain,5
2012-10-6,50,40,30,34,26,18,85,58,31,30.43,30.37,30.32,10,10,10,18,8,24,0.00,4,,336
2012-10-7,55,42,28,32,29,26,92,65,38,30.38,30.26,30.10,10,10,10,21,10,29,0.00,1,,246
2012-10-8,74,55,36,36,31,25,76,46,16,30.09,29.95,29.81,10,10,10,26,15,36,0.00,0,,205
2012-10-9,62,50,38,41,31,20,73,48,23,30.18,29.95,29.81,10,10,10,26,10,33,0.00,0,,320
2012-10-10,66,48,29,28,25,23,72,47,22,30.28,30.19,30.06,10,10,10,16,8,22,0.00,0,,212
2012-10-11,74,61,47,46,36,28,56,44,32,30.23,30.06,30.00,10,10,10,23,11,29,0.00,0,,114
2012-10-12,55,51,47,53,36,26,100,71,42,30.28,30.16,29.97,10,9,3,22,10,28,T,8,Thunderstorm,108
2012-10-13,77,65,53,66,59,52,100,85,69,29.95,29.74,29.56,10,7,0,31,11,39,2.48,7,Fog-Rain-Thunderstorm,169
2012-10-14,74,63,52,57,47,39,93,61,29,30.01,29.85,29.62,10,9,2,25,11,30,0.37,4,Rain-Thunderstorm,302
2012-10-15,79,63,47,48,44,40,77,53,28,29.99,29.89,29.71,10,10,10,17,6,22,0.00,0,,218
2012-10-16,79,67,54,48,45,42,66,47,28,29.68,29.57,29.41,10,10,10,20,11,24,0.00,0,,216
2012-10-17,67,56,45,52,36,18,77,48,19,29.75,29.57,29.36,10,10,10,36,17,47,T,3,Rain,298
2012-10-18,61,52,42,30,26,20,49,37,24,29.78,29.75,29.70,10,10,8,39,21,51,0.00,3,,297
2012-10-19,62,53,43,36,33,30,70,53,36,29.88,29.82,29.78,10,10,10,29,12,39,0.00,2,,320
2012-10-20,74,54,34,42,37,32,92,59,25,29.81,29.73,29.64,10,10,4,16,6,21,0.00,0,,133
2012-10-21,79,64,49,63,56,45,93,73,52,29.74,29.67,29.62,10,10,5,18,8,24,0.00,1,,148
2012-10-22,62,57,52,63,55,51,100,93,86,29.83,29.77,29.64,8,2,0,17,6,21,0.00,7,Fog,334
2012-10-23,82,66,50,61,53,49,100,68,35,29.80,29.70,29.61,10,6,0,22,8,28,0.00,4,Fog,128
2012-10-24,67,57,47,61,54,48,100,84,67,29.76,29.71,29.65,10,5,0,29,8,37,0.10,4,Fog-Rain,332
2012-10-25,49,41,33,48,36,25,100,75,49,30.39,30.00,29.69,10,9,2,28,19,37,0.26,7,Rain-Thunderstorm,353
2012-10-26,45,37,29,25,24,23,78,62,45,30.58,30.48,30.37,10,10,10,18,9,24,0.00,3,,349
2012-10-27,46,35,23,30,25,21,85,67,49,30.45,30.36,30.25,10,10,10,13,4,21,0.00,2,,152
2012-10-28,54,42,30,30,28,25,78,58,38,30.32,30.25,30.18,10,10,10,18,11,24,0.00,4,,155
2012-10-29,66,54,41,34,30,26,60,45,30,30.18,30.11,30.02,10,10,10,23,12,31,0.00,1,,172
2012-10-30,64,51,37,35,33,30,76,55,34,30.04,29.98,29.94,10,10,10,16,6,21,0.00,1,,93
2012-10-31,67,50,33,39,34,29,82,58,34,30.08,30.03,29.97,10,10,9,14,4,17,0.00,1,,185